Air Resources Laboratory banner image
Air Resources Laboratory web site National Oceanic and Atmospheric Administration (NOAA)

ri roundup


Office: BOX

ASUS41 KBOX 210210
RWRBOX

REGIONAL WEATHER ROUNDUP
NATIONAL WEATHER SERVICE BOSTON/NORTON MA
1000 PM EDT FRI JUL 20 2018

NOTE:  "FAIR" INDICATES FEW OR NO CLOUDS BELOW 12,000 FEET WITH NO
SIGNIFICANT WEATHER AND/OR OBSTRUCTIONS TO VISIBILITY.

MAZALL-210300-
EASTERN MASSACHUSETTS

CITY           SKY/WX    TMP DP  RH WIND       PRES   REMARKS
BOSTON         FAIR      72  60  66 S10       30.16R
BEVERLY        FAIR      66  59  78 SE7       30.16S
LAWRENCE       FAIR      70  58  65 E5        30.18S
BEDFORD        FAIR      68  57  68 S5        30.15R
BLUE HILL        N/A     67  59  75 S9        30.17R
NORWOOD        FAIR      68  61  78 CALM      30.16R
MARSHFIELD     FAIR      64  59  82 CALM      30.17R
PLYMOUTH       FAIR      61  56  83 SE3       30.18R
TAUNTON        FAIR      59  56  89 CALM      30.17R
NEW BEDFORD    FAIR      62  58  86 CALM      30.17R
$$

MAZALL-210300-
CAPE COD AND THE ISLANDS

CITY           SKY/WX    TMP DP  RH WIND       PRES   REMARKS
FALMOUTH       FAIR      59  50  72 CALM      30.19S
HYANNIS        FAIR      58  51  78 CALM      30.17R
CHATHAM        FAIR      61  55  81 CALM      30.19R
PROVINCETOWN   FAIR      58  50  75 S3        30.19R
NANTUCKET      FAIR      58  32  37 CALM      30.17S
MARTHAS VNYRD  FAIR      52  49  89 CALM      30.18R
$$

MAZALL-210300-
CENTRAL AND WESTERN MASSACHUSETTS

CITY           SKY/WX    TMP DP  RH WIND       PRES   REMARKS
WORCESTER      NOT AVBL
FITCHBURG      FAIR      70  62  76 S5        30.17R
ORANGE         FAIR      73  60  63 S5        30.16R
SPRINGFIELD    CLEAR     71  57  62 S6        30.13R
WESTFIELD      FAIR      69  59  70 S5        30.13R
NORTH ADAMS    FAIR      67  58  72 CALM      30.13R
PITTSFIELD     FAIR      71  57  61 S6        30.14R
$$

RIZALL-210300-
RHODE ISLAND

CITY           SKY/WX    TMP DP  RH WIND       PRES   REMARKS
PROVIDENCE     FAIR      68  60  75 S6        30.17S
NEWPORT        FAIR      64  58  80 CALM      30.17R
BLOCK ISLAND   FAIR      67  59  75 SE3       30.17S
SMITHFIELD     FAIR      65  62  90 S3        30.18R
WESTERLY       FAIR      70  64  81 SE3       30.17R
$$

CTZALL-210300-
CONNECTICUT

CITY           SKY/WX    TMP DP  RH WIND       PRES   REMARKS
BRADLEY INTL   FAIR      72  56  57 S9        30.13R
HARTFORD       FAIR      71  57  61 SE6       30.14R
BRIDGEPORT     FAIR      73  59  61 S7        30.14R
DANBURY        FAIR      67  54  63 S3        30.16R
GROTON         FAIR      68  64  87 SE6       30.16R
NEW HAVEN      FAIR      72  59  63 S8        30.15R
CHESTER        FAIR      66  61  82 CALM      30.17R
MERIDEN        FAIR      66  59  78 CALM      30.14R
WILLIMANTIC    FAIR      69  61  75 S3        30.16R
OXFORD         FAIR      65  56  72 S3        30.17R
$$

MEZ002-015-021-024-NHZ003-005-008-011-012-014-VTZ005-008-210300-
NORTHERN NEW ENGLAND

CITY           SKY/WX    TMP DP  RH WIND       PRES   REMARKS
PORTLAND ME    FAIR      66  62  87 S3        30.19R
BANGOR ME      FAIR      67  59  75 S6        30.18S
CONCORD NH     FAIR      67  58  72 E6        30.17R
MANCHESTER NH  FAIR      70  57  63 CALM      30.15R
NASHUA NH      FAIR      71  60  68 SE5       30.17R
PORTSMOUTH NH  CLEAR     64  59  84 SE7       30.16R
JAFFREY NH     FAIR      70  57  63 CALM      30.18R
KEENE NH       FAIR      68  58  70 CALM      30.15R
BURLINGTON VT  FAIR      76  54  46 CALM      30.07R
MT. WASHINGTON PTCLDY    57  39  51 SE9         N/A
$$

NYZ052-076-210300-
EASTERN NEW YORK

CITY           SKY/WX    TMP DP  RH WIND       PRES   REMARKS
ALBANY         FAIR      78  57  48 S6        30.10R
NEW YORK CITY  MOCLDY    75  57  53 S9        30.12S
$$

ANZALL-210300-
MARINE OBSERVATIONS

STATION/POSITION TIME  TEMP    WIND        PRES    VSBY  WAVE
                       AIR SEA DIR/SP/G                  HT/PER
                 (UTC) (F)     (DEG/KT/KT) (MB)    (MI)  (FT/S)
BOSTON BUOY      0150   68 68  140/ 12/ 12 1021.1R         2/ 3
BUZZARDS BAY     0100   69     150/  5/  5 1022.1R
NANTUCKET SOUND  0150   69 75  130/  2/  6 1021.5R         1
MASS BAY-STELLWA 0104   68 67  140/ 10/ 12 1020.0R         2/ 8
ISLE OF SHOALS   0100   68     160/ 11/ 11 1021.2R
S OF BLOCK IS    0143      73                N/A           2/ 8
$$

......................KEY.........................
  SKY/WX - SKY CONDITION/PRESENT WEATHER
  TMP    - TEMPERATURE IN FAHRENHEIT
  DWPT   - DEWPOINT IN FAHRENHEIT
  RH     - RELATIVE HUMIDITY IN PERCENT
  WIND   - DIRECTION AND SPEED IN MPH
  PRES   - MEAN SEA LEVEL PRESSURE IN INCHES OF HG
  WCI    - WIND CHILL INDEX
  VSB    - VISIBILITY IN MILES
  HX     - HEAT INDEX
  TC     - TEMPERATURE IN CELSIUS
  VRB    - VARIABLE WIND DIRECTION
  N/A    - NOT AVAILABLE




Office: OKX ASUS41 KOKX 210205 RWROKX Regional Weather Roundup National Weather Service New York NY 1000 PM EDT FRI JUL 20 2018 Note: "FAIR" indicates few or no clouds below 12,000 feet with no significant weather and/or obstructions to visibility. NYZ071-072-176-178-NJZ106-104-210300- New York City Metro Area CITY SKY/WX TMP DP RH WIND PRES REMARKS Central Park FAIR 71 59 65 VRB3 30.15S Bronx Bot Gard NOT AVBL Bronx Lehman C N/A 73 59 60 SE6 N/A LaGuardia Arpt MOCLDY 75 57 53 S9 30.12S Queens College N/A 73 57 56 SE7 N/A Kennedy Intl MOCLDY 71 60 68 SE8 30.14R Breezy Point N/A 72 N/A N/A S10 N/A Brooklyn Coll N/A 72 59 64 SE7 N/A Staten Island N/A 72 61 68 SE5 N/A Newark/Liberty MOCLDY 73 61 65 VRB5 30.12S Teterboro FAIR 73 59 61 S6 30.12R $$ NYZ177-179-078>081-210300- Long Island New York CITY SKY/WX TMP DP RH WIND PRES REMARKS Jones Beach N/A 72 N/A N/A S8 N/A Wantagh N/A 72 59 64 SE7 N/A Hempstead N/A 72 59 64 SE3 30.16S Matinecock Pt N/A 70 N/A N/A E1 N/A Farmingdale FAIR 70 58 65 SE6 30.14S MacArthur/ISP MOCLDY 70 58 65 S5 30.14R Stony Brook N/A 68 59 73 S3 N/A Shirley FAIR 65 62 90 CALM 30.15R Mt Sinai Harb N/A N/A N/A N/A S6 N/A Westhampton FAIR 61 55 81 CALM 30.17R East Hampton FAIR 62 59 91 CALM 30.15S Southold N/A 66 61 82 S6 N/A Montauk N/A 68 62 81 CALM 30.17S $$ NYZ052-065-067-210300- Hudson Valley CITY SKY/WX TMP DP RH WIND PRES REMARKS White Plains FAIR 65 58 78 CALM 30.13F Larchmont Harb N/A 72 N/A N/A SE3 N/A Croton On Huds N/A 72 N/A N/A SE1 N/A Somers N/A 64 55 72 S5 N/A Brewster N/A 64 54 68 NE1 N/A Newburgh CLEAR 72 55 56 CALM 30.14R Montgomery FAIR 64 58 80 CALM 30.12R Otisville N/A 68 54 60 S3 N/A Warwick N/A 68 57 68 SE8 N/A Suffern N/A 66 57 72 CALM N/A Poughkeepsie FAIR 69 53 56 SE5 30.11R Albany FAIR 78 57 48 S6 30.10R $$ NJZ001-105-106-008-010-013-015-019>022-104-210300- New Jersey CITY SKY/WX TMP DP RH WIND PRES REMARKS Newark/Liberty MOCLDY 73 61 65 VRB5 30.12S Teterboro FAIR 73 59 61 S6 30.12R Caldwell FAIR 71 60 68 S5 30.13R Somerville FAIR 66 59 78 CALM 30.11R Linden FAIR 73 58 60 CALM 30.13R Perth Amboy N/A 72 N/A N/A SE9 N/A Sussex FAIR 69 55 60 VRB3 30.13R Andover N/A 68 56 65 VRB3 30.14R Trenton FAIR 71 60 68 SE7 30.12R Millville FAIR 67 61 81 SE3 30.11R Atlantic City FAIR 73 61 65 SE7 30.12R Wrightstown FAIR 67 60 77 CALM 30.11R Toms River FAIR 64 60 87 CALM 30.13R Belmar FAIR 70 60 70 SE6 30.14R $$ PAZ047>061-062-071-210300- Eastern Pennsylvania CITY SKY/WX TMP DP RH WIND PRES REMARKS Philadelphia FAIR 71 59 65 S5 30.12R Allentown FAIR 74 57 55 SE9 30.10R Scranton FAIR 71 54 54 SE9 30.10R $$ CTZ002-004>006-009-010-012-RIZ004-006-007-MAZ004-011-015-210300- Southern New England In CT CITY SKY/WX TMP DP RH WIND PRES REMARKS Bradley Intl FAIR 72 56 57 S9 30.13R Hartford FAIR 71 57 61 SE6 30.14R Danbury FAIR 67 54 63 S3 30.16R Wtrbury/Oxford FAIR 65 56 72 S3 30.17R Norwalk Harbor N/A 70 N/A N/A S6 N/A Bridgeport FAIR 73 59 61 S7 30.14R Meriden FAIR 66 59 78 CALM 30.14R New Haven FAIR 72 59 63 S8 30.15R Chester FAIR 66 61 82 CALM 30.17R Groton FAIR 68 64 87 SE6 30.16R Willimantic FAIR 69 61 75 S3 30.16R In RI CITY SKY/WX TMP DP RH WIND PRES REMARKS Providence FAIR 68 60 75 S6 30.17S Block Island FAIR 67 59 75 SE3 30.17S Westerly FAIR 70 64 81 SE3 30.17R In MA CITY SKY/WX TMP DP RH WIND PRES REMARKS Boston FAIR 72 60 66 S10 30.16R Worcester NOT AVBL Westfield FAIR 69 59 70 S5 30.13R Provincetown FAIR 58 50 75 S3 30.19R Nantucket FAIR 58 32 37 CALM 30.17S $$ ANZ330-335-338-340-345-350-353-355-210300- Coastal Marine Observations STATION/POSITION TIME SKY/WX TEMP WIND PRES VSBY WAVE AIR SEA DIR/SP/G HT/PER (UTC) (F) (DEG/KT/KT) (MB) (MI) (FT/S) NY Harb Entrance 0150 74 74 140/ 12/ 16 1020.0 2/ 8 20 S Fire Island 0150 73 75 150/ 12/ 12 1020.5 2/ 8 Great South Bay 0030 74 80 180/ 8/ 12 N/A 23 SSW Montauk P 0150 71 73 160/ 10/ 12 1021.6 2/ 8 15 E Barnegat Li 0130 76 N/A 3/ 8 Hudson Canyon 0150 72 120/ 12/ 14 1019.7 2/ 8 Kings Point 0130 72 71 180/ 4/ 8 1021.2 Execution Rocks NOT AVBL Western LI Sound 0050 72 190/ 6/ 8 N/A 1 Central LI Sound 0130 73 180/ 10/ 12 N/A 1 Robbins Reef 0130 73 140/ 13/ 14 1020.6 $$ >>>>>>>>>>>>>>>>>>>>>>>>>>>> KEY <<<<<<<<<<<<<<<<<<<<<<<<<<< > < > SKY/WX - Sky Condition/Present Weather < > TMP - Temperature in Fahrenheit < > DP - Dew Point in Fahrenheit < > RH - Relative Humidity in Percent < > WIND - Direction (from) and Speed in MPH < > PRES - Mean Sea Level Pressure (inches of Hg) < > WCI - Wind Chill Index < > VSB - Visibility in Miles < > HX - Heat Index < > TC - Temperature in Celsius < > VRB - Varibale Wind Direction < > < >>>>>>>>>>>>>>>>>>>>>>>>>>>> KEY <<<<<<<<<<<<<<<<<<<<<<<<<<<